Location: Carson
(33.8314°N, 118.2820°W)
Time: 13:51:53
(UTC+00:00)

OAO 3 Rocket - Pass Details

Date: 23 November 2020
Orbit: 629 x 682 km, 35.0° (Epoch: 21 January)

Event Time Altitude Azimuth Distance (km) Brightness Sun altitude
Exits shadow 12:48:38 59° 294° (WNW) 731 3.0 -21.5°
Maximum altitude 12:49:28 79° 6° (N) 648 3.0 -21.4°
Drops below altitude 10° 12:54:12 10° 93° (E) 2,030 6.9 -20.4°
Sets 12:56:34 0° 94° (E) 2,947 8.1 -19.9°
